Time,TemperatureF,DewpointF,PressureIn,WindDirection,WindDirectionDegrees,WindSpeedMPH,WindSpeedGustMPH,Humidity,HourlyPrecipIn,Conditions,Clouds,dailyrainin,SoftwareType,DateUTC
2013-06-07 00:00:00,42.6,36.3,0.00,SE,146,19.5,-999.0,78,0.00,,,-99.99,,2013-06-07 08:00:00,
2013-06-07 00:05:00,42.7,36.1,0.00,SE,134,17.1,-999.0,77,0.00,,,-99.99,,2013-06-07 08:05:00,
2013-06-07 00:10:00,42.9,36.2,0.00,SE,142,15.4,-999.0,77,0.00,,,-99.99,,2013-06-07 08:10:00,
2013-06-07 00:17:00,42.9,36.0,0.00,SE,130,12.3,-999.0,76,0.00,,,-99.99,,2013-06-07 08:17:00,
2013-06-07 00:22:00,42.6,36.3,0.00,SE,141,11.1,-999.0,78,0.00,,,-99.99,,2013-06-07 08:22:00,
2013-06-07 00:27:00,42.7,36.1,0.00,SSE,147,12.1,-999.0,77,0.00,,,-99.99,,2013-06-07 08:27:00,
2013-06-07 00:32:00,42.9,35.8,0.00,SSE,147,13.5,-999.0,76,0.00,,,-99.99,,2013-06-07 08:32:00,
2013-06-07 00:37:00,42.8,35.9,0.00,SE,136,16.4,-999.0,76,0.00,,,-99.99,,2013-06-07 08:37:00,
2013-06-07 00:42:00,42.9,35.9,0.00,ESE,122,13.9,-999.0,76,0.00,,,-99.99,,2013-06-07 08:42:00,
2013-06-07 00:47:00,42.9,35.4,0.00,SE,139,14.9,-999.0,74,0.00,,,-99.99,,2013-06-07 08:47:00,
2013-06-07 00:52:00,42.9,35.6,0.00,SE,133,16.6,-999.0,75,0.00,,,-99.99,,2013-06-07 08:52:00,
2013-06-07 00:57:00,43.0,35.4,0.00,SE,131,19.6,-999.0,74,0.00,,,-99.99,,2013-06-07 08:57:00,
2013-06-07 01:02:00,43.2,35.5,0.00,ESE,122,12.1,-999.0,74,0.00,,,-99.99,,2013-06-07 09:02:00,
2013-06-07 01:07:00,42.9,35.8,0.00,SE,129,12.0,-999.0,75,0.00,,,-99.99,,2013-06-07 09:07:00,
2013-06-07 01:14:00,43.4,35.2,0.00,ESE,116,13.9,-999.0,72,0.00,,,-99.99,,2013-06-07 09:14:00,
2013-06-07 01:19:00,43.2,36.0,0.00,SE,129,13.3,-999.0,75,0.00,,,-99.99,,2013-06-07 09:19:00,
2013-06-07 01:24:00,43.0,36.0,0.00,ESE,106,12.1,-999.0,76,0.00,,,-99.99,,2013-06-07 09:24:00,
2013-06-07 01:29:00,42.1,36.2,0.00,ESE,116,13.9,-999.0,79,0.00,,,-99.99,,2013-06-07 09:29:00,
2013-06-07 01:34:00,42.1,36.0,0.00,ESE,105,14.7,-999.0,78,0.00,,,-99.99,,2013-06-07 09:34:00,
2013-06-07 01:40:00,42.4,36.0,0.00,ESE,104,14.2,-999.0,77,0.00,,,-99.99,,2013-06-07 09:40:00,
2013-06-07 01:45:00,42.4,36.1,0.00,East,96,11.5,-999.0,78,0.00,,,-99.99,,2013-06-07 09:45:00,
2013-06-07 01:50:00,42.4,36.0,0.00,ESE,105,11.5,-999.0,77,0.00,,,-99.99,,2013-06-07 09:50:00,
2013-06-07 01:55:00,42.4,35.9,0.00,ESE,112,15.0,-999.0,77,0.00,,,-99.99,,2013-06-07 09:55:00,
2013-06-07 02:00:00,42.4,35.7,0.00,ESE,107,14.6,-999.0,77,0.00,,,-99.99,,2013-06-07 10:00:00,
2013-06-07 02:05:00,42.6,35.8,0.00,ESE,108,15.6,-999.0,76,0.00,,,-99.99,,2013-06-07 10:05:00,
2013-06-07 02:12:00,42.8,35.8,0.00,East,100,12.3,-999.0,76,0.00,,,-99.99,,2013-06-07 10:12:00,
2013-06-07 02:17:00,42.9,35.0,0.00,East,95,13.6,-999.0,73,0.00,,,-99.99,,2013-06-07 10:17:00,
2013-06-07 02:23:00,43.2,35.5,0.00,East,98,14.3,-999.0,74,0.00,,,-99.99,,2013-06-07 10:23:00,
2013-06-07 02:28:00,43.5,35.5,0.00,ENE,74,13.9,-999.0,73,0.00,,,-99.99,,2013-06-07 10:28:00,
2013-06-07 02:33:00,43.7,34.9,0.00,SE,124,16.2,-999.0,71,0.00,,,-99.99,,2013-06-07 10:33:00,
2013-06-07 02:38:00,43.9,34.9,0.00,ESE,122,10.5,-999.0,70,0.00,,,-99.99,,2013-06-07 10:38:00,
2013-06-07 02:43:00,44.3,34.6,0.00,ESE,120,16.7,-999.0,68,0.00,,,-99.99,,2013-06-07 10:43:00,
2013-06-07 02:48:00,44.4,34.7,0.00,ESE,114,12.9,-999.0,68,0.00,,,-99.99,,2013-06-07 10:48:00,
2013-06-07 02:53:00,44.8,34.4,0.00,ESE,117,14.4,-999.0,66,0.00,,,-99.99,,2013-06-07 10:53:00,
2013-06-07 02:58:00,44.6,34.3,0.00,ESE,118,12.7,-999.0,67,0.00,,,-99.99,,2013-06-07 10:58:00,
2013-06-07 03:03:00,44.4,34.3,0.00,SE,142,16.8,-999.0,67,0.00,,,-99.99,,2013-06-07 11:03:00,
2013-06-07 03:10:00,44.6,34.0,0.00,SE,136,10.0,-999.0,66,0.00,,,-99.99,,2013-06-07 11:10:00,
2013-06-07 03:15:00,45.0,34.0,0.00,SE,140,6.3,-999.0,65,0.00,,,-99.99,,2013-06-07 11:15:00,
2013-06-07 03:20:00,45.6,33.3,0.00,ESE,119,11.7,-999.0,62,0.00,,,-99.99,,2013-06-07 11:20:00,
2013-06-07 03:25:00,45.1,33.6,0.00,ESE,111,10.9,-999.0,63,0.00,,,-99.99,,2013-06-07 11:25:00,
2013-06-07 03:30:00,45.7,33.6,0.00,SE,135,9.7,-999.0,62,0.00,,,-99.99,,2013-06-07 11:30:00,
2013-06-07 03:35:00,45.8,33.0,0.00,ESE,114,12.2,-999.0,60,0.00,,,-99.99,,2013-06-07 11:35:00,
2013-06-07 03:40:00,45.7,33.0,0.00,SE,142,8.6,-999.0,61,0.00,,,-99.99,,2013-06-07 11:40:00,
2013-06-07 03:45:00,46.3,32.9,0.00,ESE,122,12.9,-999.0,59,0.00,,,-99.99,,2013-06-07 11:45:00,
2013-06-07 03:50:00,46.5,33.2,0.00,ESE,117,10.5,-999.0,59,0.00,,,-99.99,,2013-06-07 11:50:00,
2013-06-07 03:55:00,46.4,32.9,0.00,ESE,120,14.5,-999.0,59,0.00,,,-99.99,,2013-06-07 11:55:00,
2013-06-07 04:00:00,46.6,33.5,0.00,SE,139,11.0,-999.0,60,0.00,,,-99.99,,2013-06-07 12:00:00,
2013-06-07 04:05:00,46.1,33.3,0.00,SE,125,13.6,-999.0,60,0.00,,,-99.99,,2013-06-07 12:05:00,
2013-06-07 04:10:00,46.4,33.4,0.00,ESE,113,8.6,-999.0,60,0.00,,,-99.99,,2013-06-07 12:10:00,
2013-06-07 04:15:00,46.7,33.0,0.00,ESE,116,16.1,-999.0,58,0.00,,,-99.99,,2013-06-07 12:15:00,
2013-06-07 04:20:00,47.0,32.7,0.00,ESE,117,17.2,-999.0,57,0.00,,,-99.99,,2013-06-07 12:20:00,
2013-06-07 04:25:00,46.7,33.1,0.00,ESE,114,14.2,-999.0,58,0.00,,,-99.99,,2013-06-07 12:25:00,
2013-06-07 04:31:00,46.1,33.3,0.00,ESE,120,12.0,-999.0,60,0.00,,,-99.99,,2013-06-07 12:31:00,
2013-06-07 04:36:00,46.9,33.1,0.00,ESE,113,15.7,-999.0,58,0.00,,,-99.99,,2013-06-07 12:36:00,
2013-06-07 04:41:00,47.2,33.0,0.00,ESE,116,12.7,-999.0,57,0.00,,,-99.99,,2013-06-07 12:41:00,
2013-06-07 04:46:00,47.3,32.5,0.00,ESE,105,11.9,-999.0,56,0.00,,,-99.99,,2013-06-07 12:46:00,
2013-06-07 04:51:00,48.0,32.8,0.00,ESE,105,8.1,-999.0,55,0.00,,,-99.99,,2013-06-07 12:51:00,
2013-06-07 04:56:00,48.6,32.5,0.00,ESE,115,9.9,-999.0,53,0.00,,,-99.99,,2013-06-07 12:56:00,
2013-06-07 05:01:00,48.7,32.8,0.00,SSE,151,8.5,-999.0,53,0.00,,,-99.99,,2013-06-07 13:01:00,
2013-06-07 05:06:00,48.1,33.1,0.00,SE,137,9.4,-999.0,55,0.00,,,-99.99,,2013-06-07 13:06:00,
2013-06-07 05:11:00,47.4,32.8,0.00,SE,128,10.7,-999.0,56,0.00,,,-99.99,,2013-06-07 13:11:00,
2013-06-07 05:16:00,48.0,32.5,0.00,SE,136,7.5,-999.0,54,0.00,,,-99.99,,2013-06-07 13:16:00,
2013-06-07 05:22:00,49.1,32.2,0.00,ESE,121,9.0,-999.0,52,0.00,,,-99.99,,2013-06-07 13:22:00,
2013-06-07 05:27:00,47.7,33.9,0.00,WSW,252,2.6,-999.0,58,0.00,,,-99.99,,2013-06-07 13:27:00,
2013-06-07 05:32:00,48.0,33.6,0.00,SSE,154,0.8,-999.0,57,0.00,,,-99.99,,2013-06-07 13:32:00,
2013-06-07 05:37:00,49.2,32.7,0.00,South,170,15.1,-999.0,52,0.00,,,-99.99,,2013-06-07 13:37:00,
2013-06-07 05:42:00,49.2,32.7,0.00,South,178,9.7,-999.0,52,0.00,,,-99.99,,2013-06-07 13:42:00,
2013-06-07 05:47:00,48.6,32.9,0.00,South,169,3.5,-999.0,54,0.00,,,-99.99,,2013-06-07 13:47:00,
2013-06-07 05:52:00,48.8,31.7,0.00,SE,131,11.2,-999.0,51,0.00,,,-99.99,,2013-06-07 13:52:00,
2013-06-07 05:57:00,50.4,31.5,0.00,SE,124,17.0,-999.0,48,0.00,,,-99.99,,2013-06-07 13:57:00,
2013-06-07 06:04:00,50.6,32.2,0.00,SSE,159,7.3,-999.0,49,0.00,,,-99.99,,2013-06-07 14:04:00,
2013-06-07 06:09:00,50.8,31.9,0.00,SE,138,12.3,-999.0,48,0.00,,,-99.99,,2013-06-07 14:09:00,
2013-06-07 06:14:00,51.6,31.3,0.00,SSE,147,11.0,-999.0,45,0.00,,,-99.99,,2013-06-07 14:14:00,
2013-06-07 06:19:00,48.2,33.6,0.00,West,259,7.2,-999.0,56,0.00,,,-99.99,,2013-06-07 14:19:00,
2013-06-07 06:24:00,45.6,33.8,0.00,WNW,282,5.2,-999.0,63,0.00,,,-99.99,,2013-06-07 14:24:00,
2013-06-07 06:29:00,46.2,31.7,0.00,SE,144,1.8,-999.0,56,0.00,,,-99.99,,2013-06-07 14:29:00,
2013-06-07 06:34:00,49.7,32.5,0.00,WSW,250,1.8,-999.0,51,0.00,,,-99.99,,2013-06-07 14:34:00,
2013-06-07 06:39:00,47.6,32.4,0.00,ESE,120,4.2,-999.0,55,0.00,,,-99.99,,2013-06-07 14:39:00,
2013-06-07 06:44:00,50.0,32.0,0.00,ESE,118,9.1,-999.0,49,0.00,,,-99.99,,2013-06-07 14:44:00,
2013-06-07 06:49:00,49.5,32.7,0.00,SW,216,2.1,-999.0,52,0.00,,,-99.99,,2013-06-07 14:49:00,
2013-06-07 06:54:00,47.7,32.9,0.00,ENE,65,2.9,-999.0,56,0.00,,,-99.99,,2013-06-07 14:54:00,
2013-06-07 06:59:00,50.7,31.5,0.00,ESE,103,7.3,-999.0,47,0.00,,,-99.99,,2013-06-07 14:59:00,
2013-06-07 07:04:00,50.8,31.5,0.00,ENE,67,7.7,-999.0,47,0.00,,,-99.99,,2013-06-07 15:04:00,
2013-06-07 07:09:00,50.5,31.2,0.00,SE,132,5.4,-999.0,47,0.00,,,-99.99,,2013-06-07 15:09:00,
2013-06-07 07:14:00,49.1,34.0,0.00,West,281,4.9,-999.0,55,0.00,,,-99.99,,2013-06-07 15:14:00,
2013-06-07 07:19:00,47.3,34.0,0.00,West,263,3.3,-999.0,59,0.00,,,-99.99,,2013-06-07 15:19:00,
2013-06-07 07:24:00,50.2,30.8,0.00,ESE,109,12.4,-999.0,47,0.00,,,-99.99,,2013-06-07 15:24:00,
2013-06-07 07:29:00,49.4,32.7,0.00,WSW,255,2.5,-999.0,52,0.00,,,-99.99,,2013-06-07 15:29:00,
2013-06-07 07:34:00,48.5,33.7,0.00,NNW,343,0.0,-999.0,56,0.00,,,-99.99,,2013-06-07 15:34:00,
2013-06-07 07:39:00,50.0,30.9,0.00,East,94,9.9,-999.0,47,0.00,,,-99.99,,2013-06-07 15:39:00,
2013-06-07 07:44:00,50.2,32.0,0.00,SE,134,10.7,-999.0,49,0.00,,,-99.99,,2013-06-07 15:44:00,
2013-06-07 07:49:00,49.7,32.8,0.00,ESE,120,7.5,-999.0,52,0.00,,,-99.99,,2013-06-07 15:49:00,
2013-06-07 07:54:00,50.2,31.4,0.00,SSE,156,3.9,-999.0,48,0.00,,,-99.99,,2013-06-07 15:54:00,
2013-06-07 08:00:00,50.2,32.8,0.00,SSE,158,6.6,-999.0,51,0.00,,,-99.99,,2013-06-07 16:00:00,
2013-06-07 08:05:00,50.1,31.5,0.00,SE,146,7.5,-999.0,48,0.00,,,-99.99,,2013-06-07 16:05:00,
2013-06-07 08:10:00,50.2,31.6,0.00,ESE,121,10.1,-999.0,48,0.00,,,-99.99,,2013-06-07 16:10:00,
2013-06-07 08:15:00,50.8,31.9,0.00,SE,141,8.4,-999.0,48,0.00,,,-99.99,,2013-06-07 16:15:00,
2013-06-07 08:20:00,50.5,32.1,0.00,SSE,149,5.7,-999.0,49,0.00,,,-99.99,,2013-06-07 16:20:00,
2013-06-07 08:25:00,50.2,33.1,0.00,South,174,2.0,-999.0,51,0.00,,,-99.99,,2013-06-07 16:25:00,
2013-06-07 08:30:00,50.7,32.1,0.00,SE,133,7.4,-999.0,48,0.00,,,-99.99,,2013-06-07 16:30:00,
2013-06-07 08:35:00,50.8,32.2,0.00,SE,125,8.4,-999.0,48,0.00,,,-99.99,,2013-06-07 16:35:00,
2013-06-07 08:40:00,51.2,34.8,0.00,South,186,1.8,-999.0,53,0.00,,,-99.99,,2013-06-07 16:40:00,
2013-06-07 08:45:00,51.2,34.0,0.00,South,179,3.6,-999.0,51,0.00,,,-99.99,,2013-06-07 16:45:00,
2013-06-07 08:50:00,51.0,34.1,0.00,SE,138,4.0,-999.0,52,0.00,,,-99.99,,2013-06-07 16:50:00,
2013-06-07 08:55:00,50.8,36.0,0.00,SSW,207,4.0,-999.0,56,0.00,,,-99.99,,2013-06-07 16:55:00,
2013-06-07 09:00:00,51.1,36.8,0.00,South,176,3.8,-999.0,57,0.00,,,-99.99,,2013-06-07 17:00:00,
2013-06-07 09:05:00,50.6,37.1,0.00,SW,234,0.7,-999.0,59,0.00,,,-99.99,,2013-06-07 17:05:00,
2013-06-07 09:10:00,50.5,35.9,0.00,ESE,121,3.1,-999.0,57,0.00,,,-99.99,,2013-06-07 17:10:00,
2013-06-07 09:15:00,50.8,33.8,0.00,SE,144,5.7,-999.0,52,0.00,,,-99.99,,2013-06-07 17:15:00,
2013-06-07 09:20:00,51.2,36.4,0.00,SSW,196,1.8,-999.0,56,0.00,,,-99.99,,2013-06-07 17:20:00,
2013-06-07 09:25:00,51.1,34.6,0.00,SE,126,4.6,-999.0,53,0.00,,,-99.99,,2013-06-07 17:25:00,
2013-06-07 09:30:00,51.1,34.2,0.00,SE,142,6.8,-999.0,52,0.00,,,-99.99,,2013-06-07 17:30:00,
2013-06-07 09:35:00,51.2,35.8,0.00,SSE,167,4.0,-999.0,55,0.00,,,-99.99,,2013-06-07 17:35:00,
2013-06-07 09:40:00,50.9,36.2,0.00,SSE,166,3.0,-999.0,56,0.00,,,-99.99,,2013-06-07 17:40:00,
2013-06-07 09:45:00,50.6,34.7,0.00,South,190,2.7,-999.0,54,0.00,,,-99.99,,2013-06-07 17:45:00,
2013-06-07 09:50:00,51.0,36.0,0.00,South,170,3.2,-999.0,56,0.00,,,-99.99,,2013-06-07 17:50:00,
2013-06-07 09:55:00,51.1,35.1,0.00,SSE,159,4.0,-999.0,54,0.00,,,-99.99,,2013-06-07 17:55:00,
2013-06-07 10:00:00,51.1,35.1,0.00,SSE,167,6.2,-999.0,54,0.00,,,-99.99,,2013-06-07 18:00:00,
2013-06-07 10:05:00,51.1,35.7,0.00,SE,141,4.1,-999.0,55,0.00,,,-99.99,,2013-06-07 18:05:00,
2013-06-07 10:11:00,51.3,35.9,0.00,SSE,165,4.2,-999.0,55,0.00,,,-99.99,,2013-06-07 18:11:00,
2013-06-07 10:16:00,51.2,36.8,0.00,SSE,156,2.1,-999.0,57,0.00,,,-99.99,,2013-06-07 18:16:00,
2013-06-07 10:21:00,51.3,35.0,0.00,ENE,63,5.0,-999.0,53,0.00,,,-99.99,,2013-06-07 18:21:00,
2013-06-07 10:27:00,51.4,36.8,0.00,SSW,198,4.4,-999.0,57,0.00,,,-99.99,,2013-06-07 18:27:00,
2013-06-07 10:32:00,52.0,36.4,0.00,South,172,1.3,-999.0,55,0.00,,,-99.99,,2013-06-07 18:32:00,
2013-06-07 10:37:00,52.9,36.1,0.00,SSE,162,2.3,-999.0,52,0.00,,,-99.99,,2013-06-07 18:37:00,
2013-06-07 10:42:00,53.3,38.5,0.00,WSW,237,1.9,-999.0,57,0.00,,,-99.99,,2013-06-07 18:42:00,
2013-06-07 10:47:00,52.8,36.8,0.00,South,181,4.4,-999.0,54,0.00,,,-99.99,,2013-06-07 18:47:00,
2013-06-07 10:52:00,52.6,36.8,0.00,South,183,7.8,-999.0,54,0.00,,,-99.99,,2013-06-07 18:52:00,
2013-06-07 10:57:00,52.3,35.8,0.00,South,179,4.4,-999.0,53,0.00,,,-99.99,,2013-06-07 18:57:00,
2013-06-07 11:02:00,53.0,36.8,0.00,WSW,242,4.1,-999.0,54,0.00,,,-99.99,,2013-06-07 19:02:00,
2013-06-07 11:07:00,52.7,35.2,0.00,SE,140,4.4,-999.0,51,0.00,,,-99.99,,2013-06-07 19:07:00,
2013-06-07 11:13:00,52.3,34.4,0.00,SSE,162,5.5,-999.0,50,0.00,,,-99.99,,2013-06-07 19:13:00,
2013-06-07 11:18:00,53.1,35.4,0.00,SSW,194,5.4,-999.0,50,0.00,,,-99.99,,2013-06-07 19:18:00,
2013-06-07 11:23:00,53.8,36.8,0.00,SSW,193,3.3,-999.0,52,0.00,,,-99.99,,2013-06-07 19:23:00,
2013-06-07 11:28:00,54.6,36.3,0.00,SW,218,4.3,-999.0,49,0.00,,,-99.99,,2013-06-07 19:28:00,
2013-06-07 11:33:00,54.5,41.3,0.00,West,266,5.2,-999.0,61,0.00,,,-99.99,,2013-06-07 19:33:00,
2013-06-07 11:38:00,54.4,35.2,0.00,South,177,10.4,-999.0,48,0.00,,,-99.99,,2013-06-07 19:38:00,
2013-06-07 11:43:00,54.0,36.3,0.00,SSW,192,8.7,-999.0,51,0.00,,,-99.99,,2013-06-07 19:43:00,
2013-06-07 11:48:00,53.5,38.5,0.00,SSW,206,4.6,-999.0,56,0.00,,,-99.99,,2013-06-07 19:48:00,
2013-06-07 11:53:00,52.3,36.1,0.00,South,187,11.7,-999.0,53,0.00,,,-99.99,,2013-06-07 19:53:00,
2013-06-07 11:59:00,52.4,36.7,0.00,SW,214,4.6,-999.0,54,0.00,,,-99.99,,2013-06-07 19:59:00,
2013-06-07 12:07:00,52.1,35.5,0.00,South,190,9.6,-999.0,53,0.00,,,-99.99,,2013-06-07 20:07:00,
2013-06-07 12:16:00,52.1,36.8,0.00,SSW,200,8.4,-999.0,55,0.00,,,-99.99,,2013-06-07 20:16:00,
2013-06-07 12:23:00,52.6,37.9,0.00,SSW,202,7.4,-999.0,57,0.00,,,-99.99,,2013-06-07 20:23:00,
2013-06-07 12:29:00,52.4,38.8,0.00,SW,222,8.1,-999.0,59,0.00,,,-99.99,,2013-06-07 20:29:00,
2013-06-07 12:35:00,52.3,39.4,0.00,SW,221,6.1,-999.0,61,0.00,,,-99.99,,2013-06-07 20:35:00,
2013-06-07 12:40:00,51.9,38.5,0.00,SW,227,3.2,-999.0,60,0.00,,,-99.99,,2013-06-07 20:40:00,
2013-06-07 12:49:00,51.2,39.9,0.00,SW,221,5.9,-999.0,65,0.00,,,-99.99,,2013-06-07 20:49:00,
2013-06-07 12:54:00,50.9,37.7,0.00,WSW,242,2.8,-999.0,60,0.00,,,-99.99,,2013-06-07 20:54:00,
2013-06-07 12:59:00,51.2,38.9,0.00,SW,232,4.6,-999.0,62,0.00,,,-99.99,,2013-06-07 20:59:00,
2013-06-07 13:04:00,52.7,40.1,0.00,West,270,2.5,-999.0,62,0.00,,,-99.99,,2013-06-07 21:04:00,
2013-06-07 13:09:00,52.0,40.8,0.00,WNW,283,5.0,-999.0,65,0.00,,,-99.99,,2013-06-07 21:09:00,
2013-06-07 13:16:00,52.1,41.1,0.00,SSW,213,4.3,-999.0,65,0.00,,,-99.99,,2013-06-07 21:16:00,
2013-06-07 13:22:00,53.0,38.9,0.00,WSW,254,2.4,-999.0,58,0.00,,,-99.99,,2013-06-07 21:22:00,
2013-06-07 13:27:00,52.2,40.4,0.00,WNW,298,3.5,-999.0,63,0.00,,,-99.99,,2013-06-07 21:27:00,
2013-06-07 13:33:00,53.5,39.5,0.00,WNW,296,2.6,-999.0,59,0.00,,,-99.99,,2013-06-07 21:33:00,
2013-06-07 13:38:00,51.7,35.5,0.00,SW,235,9.4,-999.0,53,0.00,,,-99.99,,2013-06-07 21:38:00,
2013-06-07 13:43:00,53.0,38.1,0.00,WNW,298,4.8,-999.0,56,0.00,,,-99.99,,2013-06-07 21:43:00,
2013-06-07 13:48:00,51.9,38.9,0.00,WNW,285,6.2,-999.0,61,0.00,,,-99.99,,2013-06-07 21:48:00,
2013-06-07 13:53:00,53.0,38.8,0.00,WSW,248,6.1,-999.0,58,0.00,,,-99.99,,2013-06-07 21:53:00,
2013-06-07 13:58:00,54.5,40.3,0.00,WSW,241,6.8,-999.0,58,0.00,,,-99.99,,2013-06-07 21:58:00,
2013-06-07 14:03:00,53.2,38.1,0.00,WSW,246,5.5,-999.0,56,0.00,,,-99.99,,2013-06-07 22:03:00,
2013-06-07 14:10:00,53.0,38.1,0.00,West,263,9.0,-999.0,56,0.00,,,-99.99,,2013-06-07 22:10:00,
2013-06-07 14:16:00,53.4,38.3,0.00,SW,215,7.1,-999.0,56,0.00,,,-99.99,,2013-06-07 22:16:00,
2013-06-07 14:21:00,52.3,38.5,0.00,WSW,239,4.7,-999.0,59,0.00,,,-99.99,,2013-06-07 22:21:00,
2013-06-07 14:26:00,52.4,38.4,0.00,West,261,6.8,-999.0,58,0.00,,,-99.99,,2013-06-07 22:26:00,
2013-06-07 14:31:00,52.4,38.6,0.00,WSW,250,9.3,-999.0,59,0.00,,,-99.99,,2013-06-07 22:31:00,
2013-06-07 14:38:00,52.1,39.7,0.00,SW,231,7.0,-999.0,62,0.00,,,-99.99,,2013-06-07 22:38:00,
2013-06-07 14:44:00,51.9,39.9,0.00,WSW,247,7.3,-999.0,63,0.00,,,-99.99,,2013-06-07 22:44:00,
2013-06-07 14:49:00,51.2,37.6,0.00,SSW,212,5.8,-999.0,59,0.00,,,-99.99,,2013-06-07 22:49:00,
2013-06-07 14:54:00,50.7,37.6,0.00,SSW,208,5.0,-999.0,60,0.00,,,-99.99,,2013-06-07 22:54:00,
2013-06-07 14:59:00,51.3,38.8,0.00,SW,216,5.8,-999.0,62,0.00,,,-99.99,,2013-06-07 22:59:00,
2013-06-07 15:06:00,51.7,38.1,0.00,SSW,194,2.2,-999.0,59,0.00,,,-99.99,,2013-06-07 23:06:00,
2013-06-07 15:13:00,52.2,39.7,0.00,SW,233,4.2,-999.0,62,0.00,,,-99.99,,2013-06-07 23:13:00,
2013-06-07 15:18:00,52.9,39.0,0.00,SW,229,2.9,-999.0,59,0.00,,,-99.99,,2013-06-07 23:18:00,
2013-06-07 15:23:00,53.1,38.6,0.00,SW,232,5.7,-999.0,57,0.00,,,-99.99,,2013-06-07 23:23:00,
2013-06-07 15:34:00,53.8,39.2,0.00,WNW,295,0.3,-999.0,57,0.00,,,-99.99,,2013-06-07 23:34:00,
2013-06-07 15:39:00,52.7,39.2,0.00,SW,229,1.1,-999.0,60,0.00,,,-99.99,,2013-06-07 23:39:00,
2013-06-07 15:45:00,52.6,37.9,0.00,NNW,332,4.2,-999.0,57,0.00,,,-99.99,,2013-06-07 23:45:00,
2013-06-07 15:50:00,52.2,38.1,0.00,NW,323,5.3,-999.0,58,0.00,,,-99.99,,2013-06-07 23:50:00,
2013-06-07 15:55:00,51.8,36.5,0.00,SW,224,5.3,-999.0,55,0.00,,,-99.99,,2013-06-07 23:55:00,
2013-06-07 16:02:00,51.9,37.1,0.00,West,275,5.3,-999.0,56,0.00,,,-99.99,,2013-06-08 00:02:00,
2013-06-07 16:07:00,53.2,38.6,0.00,WSW,245,6.9,-999.0,57,0.00,,,-99.99,,2013-06-08 00:07:00,
2013-06-07 16:12:00,53.5,40.0,0.00,SSE,152,1.2,-999.0,60,0.00,,,-99.99,,2013-06-08 00:12:00,
2013-06-07 16:17:00,53.3,35.5,0.00,WNW,290,4.6,-999.0,50,0.00,,,-99.99,,2013-06-08 00:17:00,
2013-06-07 16:23:00,53.2,36.2,0.00,West,267,3.8,-999.0,52,0.00,,,-99.99,,2013-06-08 00:23:00,
2013-06-07 16:32:00,52.6,36.7,0.00,WNW,286,3.9,-999.0,54,0.00,,,-99.99,,2013-06-08 00:32:00,
2013-06-07 16:39:00,53.8,37.1,0.00,NW,317,0.8,-999.0,53,0.00,,,-99.99,,2013-06-08 00:39:00,
2013-06-07 16:45:00,53.6,37.8,0.00,WNW,292,5.7,-999.0,55,0.00,,,-99.99,,2013-06-08 00:45:00,
2013-06-07 16:50:00,53.6,39.4,0.00,SW,232,1.1,-999.0,58,0.00,,,-99.99,,2013-06-08 00:50:00,
2013-06-07 16:55:00,53.6,37.6,0.00,West,280,6.2,-999.0,54,0.00,,,-99.99,,2013-06-08 00:55:00,
2013-06-07 17:00:00,53.7,39.0,0.00,West,275,0.9,-999.0,57,0.00,,,-99.99,,2013-06-08 01:00:00,
2013-06-07 17:05:00,54.2,39.1,0.00,WNW,288,2.7,-999.0,56,0.00,,,-99.99,,2013-06-08 01:05:00,
2013-06-07 17:10:00,52.7,39.3,0.00,SW,236,3.2,-999.0,60,0.00,,,-99.99,,2013-06-08 01:10:00,
2013-06-07 17:15:00,51.3,37.3,0.00,WSW,238,3.2,-999.0,58,0.00,,,-99.99,,2013-06-08 01:15:00,
2013-06-07 17:21:00,50.6,35.9,0.00,West,275,3.7,-999.0,57,0.00,,,-99.99,,2013-06-08 01:21:00,
2013-06-07 17:27:00,51.0,37.8,0.00,West,277,5.3,-999.0,60,0.00,,,-99.99,,2013-06-08 01:27:00,
2013-06-07 17:33:00,51.0,38.1,0.00,West,264,1.4,-999.0,61,0.00,,,-99.99,,2013-06-08 01:33:00,
2013-06-07 17:39:00,51.8,38.5,0.00,WNW,283,5.4,-999.0,60,0.00,,,-99.99,,2013-06-08 01:39:00,
2013-06-07 17:44:00,51.5,38.6,0.00,NNE,21,0.1,-999.0,61,0.00,,,-99.99,,2013-06-08 01:44:00,
2013-06-07 17:49:00,51.1,39.3,0.00,WSW,258,3.5,-999.0,63,0.00,,,-99.99,,2013-06-08 01:49:00,
2013-06-07 17:56:00,52.5,41.2,0.00,East,83,1.6,-999.0,65,0.00,,,-99.99,,2013-06-08 01:56:00,
2013-06-07 18:01:00,50.8,40.6,0.00,West,259,2.9,-999.0,68,0.00,,,-99.99,,2013-06-08 02:01:00,
2013-06-07 18:07:00,50.5,39.7,0.00,West,262,2.7,-999.0,66,0.00,,,-99.99,,2013-06-08 02:07:00,
2013-06-07 18:13:00,50.8,40.1,0.00,NW,307,2.6,-999.0,66,0.00,,,-99.99,,2013-06-08 02:13:00,
2013-06-07 18:18:00,51.5,39.9,0.00,West,263,7.5,-999.0,64,0.00,,,-99.99,,2013-06-08 02:18:00,
2013-06-07 18:25:00,49.9,39.0,0.00,NW,304,2.8,-999.0,65,0.00,,,-99.99,,2013-06-08 02:25:00,
2013-06-07 18:30:00,49.2,38.9,0.00,West,265,3.1,-999.0,67,0.00,,,-99.99,,2013-06-08 02:30:00,
2013-06-07 18:36:00,49.2,39.0,0.00,WSW,252,1.2,-999.0,67,0.00,,,-99.99,,2013-06-08 02:36:00,
2013-06-07 18:43:00,49.0,39.1,0.00,WNW,282,2.9,-999.0,68,0.00,,,-99.99,,2013-06-08 02:43:00,
2013-06-07 18:48:00,49.3,39.9,0.00,NNW,342,2.5,-999.0,70,0.00,,,-99.99,,2013-06-08 02:48:00,
2013-06-07 18:53:00,49.7,38.3,0.00,West,275,4.9,-999.0,64,0.00,,,-99.99,,2013-06-08 02:53:00,
2013-06-07 18:58:00,48.7,38.3,0.00,West,265,3.6,-999.0,67,0.00,,,-99.99,,2013-06-08 02:58:00,
2013-06-07 19:07:00,49.5,35.4,0.00,SW,223,4.5,-999.0,58,0.00,,,-99.99,,2013-06-08 03:07:00,
2013-06-07 19:14:00,49.2,35.6,0.00,SW,219,3.5,-999.0,59,0.00,,,-99.99,,2013-06-08 03:14:00,
2013-06-07 19:20:00,50.2,34.9,0.00,WSW,239,4.9,-999.0,55,0.00,,,-99.99,,2013-06-08 03:20:00,
2013-06-07 19:25:00,50.2,35.1,0.00,SW,227,4.7,-999.0,55,0.00,,,-99.99,,2013-06-08 03:25:00,
2013-06-07 19:31:00,50.3,35.2,0.00,WSW,243,4.9,-999.0,55,0.00,,,-99.99,,2013-06-08 03:31:00,
2013-06-07 19:36:00,50.1,34.9,0.00,WSW,247,3.5,-999.0,55,0.00,,,-99.99,,2013-06-08 03:36:00,
2013-06-07 19:41:00,49.9,34.8,0.00,SW,235,4.8,-999.0,55,0.00,,,-99.99,,2013-06-08 03:41:00,
2013-06-07 19:46:00,49.9,35.0,0.00,SW,229,3.9,-999.0,56,0.00,,,-99.99,,2013-06-08 03:46:00,
2013-06-07 19:51:00,49.9,34.7,0.00,SW,225,2.8,-999.0,55,0.00,,,-99.99,,2013-06-08 03:51:00,
2013-06-07 19:56:00,49.8,34.7,0.00,SW,235,3.4,-999.0,55,0.00,,,-99.99,,2013-06-08 03:56:00,
2013-06-07 20:01:00,49.8,34.9,0.00,SW,236,3.5,-999.0,56,0.00,,,-99.99,,2013-06-08 04:01:00,
2013-06-07 20:02:00,49.9,35.0,0.00,SW,221,3.6,-999.0,56,0.00,,,-99.99,,2013-06-08 04:02:00,
2013-06-07 20:06:00,49.8,35.0,0.00,SW,219,2.9,-999.0,56,0.00,,,-99.99,,2013-06-08 04:06:00,
2013-06-07 20:12:00,49.8,35.1,0.00,SW,225,2.3,-999.0,56,0.00,,,-99.99,,2013-06-08 04:12:00,
2013-06-07 20:17:00,49.8,34.8,0.00,SW,233,2.2,-999.0,56,0.00,,,-99.99,,2013-06-08 04:17:00,
2013-06-07 20:23:00,49.8,34.8,0.00,SW,229,2.3,-999.0,56,0.00,,,-99.99,,2013-06-08 04:23:00,
2013-06-07 20:24:00,49.9,34.8,0.00,SW,235,2.5,-999.0,55,0.00,,,-99.99,,2013-06-08 04:24:00,
2013-06-07 20:29:00,49.8,34.8,0.00,WSW,239,2.4,-999.0,56,0.00,,,-99.99,,2013-06-08 04:29:00,
2013-06-07 20:34:00,50.0,34.8,0.00,SW,220,0.7,-999.0,55,0.00,,,-99.99,,2013-06-08 04:34:00,
2013-06-07 20:39:00,50.7,34.9,0.00,North,6,0.0,-999.0,54,0.00,,,-99.99,,2013-06-08 04:39:00,
2013-06-07 20:44:00,51.0,35.2,0.00,North,2,0.0,-999.0,54,0.00,,,-99.99,,2013-06-08 04:44:00,
2013-06-07 20:49:00,51.0,34.8,0.00,NW,312,1.0,-999.0,53,0.00,,,-99.99,,2013-06-08 04:49:00,
2013-06-07 20:54:00,50.9,35.1,0.00,WNW,295,1.7,-999.0,54,0.00,,,-99.99,,2013-06-08 04:54:00,
2013-06-07 20:59:00,50.4,35.1,0.00,West,273,1.1,-999.0,55,0.00,,,-99.99,,2013-06-08 04:59:00,
2013-06-07 21:04:00,50.5,35.2,0.00,WSW,249,0.7,-999.0,55,0.00,,,-99.99,,2013-06-08 05:04:00,
2013-06-07 21:09:00,50.4,36.0,0.00,WNW,289,0.0,-999.0,57,0.00,,,-99.99,,2013-06-08 05:09:00,
2013-06-07 21:14:00,50.4,35.4,0.00,WNW,288,1.3,-999.0,56,0.00,,,-99.99,,2013-06-08 05:14:00,
2013-06-07 21:19:00,50.4,35.7,0.00,West,275,0.9,-999.0,56,0.00,,,-99.99,,2013-06-08 05:19:00,
2013-06-07 21:24:00,50.5,35.7,0.00,WNW,283,1.2,-999.0,56,0.00,,,-99.99,,2013-06-08 05:24:00,
2013-06-07 21:29:00,50.1,35.7,0.00,WNW,299,1.4,-999.0,57,0.00,,,-99.99,,2013-06-08 05:29:00,
2013-06-07 21:34:00,49.8,35.7,0.00,NW,308,1.1,-999.0,58,0.00,,,-99.99,,2013-06-08 05:34:00,
2013-06-07 21:39:00,49.5,35.7,0.00,NW,305,2.3,-999.0,58,0.00,,,-99.99,,2013-06-08 05:39:00,
2013-06-07 21:44:00,49.5,35.6,0.00,NW,308,2.2,-999.0,58,0.00,,,-99.99,,2013-06-08 05:44:00,
2013-06-07 21:49:00,49.6,35.8,0.00,WNW,291,2.5,-999.0,58,0.00,,,-99.99,,2013-06-08 05:49:00,
2013-06-07 21:54:00,49.5,35.5,0.00,NW,319,2.7,-999.0,58,0.00,,,-99.99,,2013-06-08 05:54:00,
2013-06-07 21:59:00,49.6,35.8,0.00,NW,321,2.6,-999.0,58,0.00,,,-99.99,,2013-06-08 05:59:00,
2013-06-07 22:04:00,49.5,35.5,0.00,NNW,338,2.6,-999.0,58,0.00,,,-99.99,,2013-06-08 06:04:00,
2013-06-07 22:09:00,49.5,35.5,0.00,NNW,340,2.5,-999.0,58,0.00,,,-99.99,,2013-06-08 06:09:00,
2013-06-07 22:14:00,49.4,35.6,0.00,NNW,337,1.3,-999.0,58,0.00,,,-99.99,,2013-06-08 06:14:00,
2013-06-07 22:19:00,49.5,36.0,0.00,North,3,1.0,-999.0,59,0.00,,,-99.99,,2013-06-08 06:19:00,
2013-06-07 22:24:00,49.8,36.1,0.00,NNW,334,0.4,-999.0,59,0.00,,,-99.99,,2013-06-08 06:24:00,
2013-06-07 22:29:00,49.5,35.9,0.00,NW,309,1.0,-999.0,59,0.00,,,-99.99,,2013-06-08 06:29:00,
2013-06-07 22:34:00,49.2,35.7,0.00,North,4,1.8,-999.0,59,0.00,,,-99.99,,2013-06-08 06:34:00,
2013-06-07 22:39:00,48.8,35.2,0.00,North,354,2.4,-999.0,59,0.00,,,-99.99,,2013-06-08 06:39:00,
2013-06-07 22:44:00,48.9,35.4,0.00,NNW,339,2.1,-999.0,59,0.00,,,-99.99,,2013-06-08 06:44:00,
2013-06-07 22:49:00,48.7,35.3,0.00,NNW,340,2.3,-999.0,59,0.00,,,-99.99,,2013-06-08 06:49:00,
2013-06-07 22:54:00,48.8,35.5,0.00,NW,325,3.2,-999.0,60,0.00,,,-99.99,,2013-06-08 06:54:00,
2013-06-07 22:59:00,48.4,35.7,0.00,NW,321,3.2,-999.0,61,0.00,,,-99.99,,2013-06-08 06:59:00,
2013-06-07 23:05:00,48.2,35.9,0.00,NNW,333,2.3,-999.0,62,0.00,,,-99.99,,2013-06-08 07:05:00,
2013-06-07 23:10:00,48.7,36.0,0.00,NNW,331,2.8,-999.0,61,0.00,,,-99.99,,2013-06-08 07:10:00,
2013-06-07 23:15:00,48.7,35.8,0.00,NNW,330,3.4,-999.0,60,0.00,,,-99.99,,2013-06-08 07:15:00,
2013-06-07 23:20:00,48.7,36.0,0.00,NW,319,4.0,-999.0,61,0.00,,,-99.99,,2013-06-08 07:20:00,
2013-06-07 23:25:00,48.6,36.1,0.00,NW,325,3.9,-999.0,61,0.00,,,-99.99,,2013-06-08 07:25:00,
2013-06-07 23:31:00,48.7,36.2,0.00,NW,320,4.8,-999.0,61,0.00,,,-99.99,,2013-06-08 07:31:00,
2013-06-07 23:36:00,48.9,36.4,0.00,NW,322,4.1,-999.0,62,0.00,,,-99.99,,2013-06-08 07:36:00,
2013-06-07 23:41:00,48.8,36.4,0.00,NW,316,4.2,-999.0,62,0.00,,,-99.99,,2013-06-08 07:41:00,
2013-06-07 23:47:00,48.7,36.4,0.00,NW,315,4.8,-999.0,62,0.00,,,-99.99,,2013-06-08 07:47:00,
2013-06-07 23:52:00,48.7,36.5,0.00,NW,311,5.0,-999.0,62,0.00,,,-99.99,,2013-06-08 07:52:00,
2013-06-07 23:57:00,48.9,36.8,0.00,NW,313,4.3,-999.0,62,0.00,,,-99.99,,2013-06-08 07:57:00,